Theta_e
329 327 325 326 331 331 329 330 329 323 325 327 321 319 318 317 315 313 310 311 310 311 310 310 310 310 310 309 308 306 307 307 306 303 302 301 301 301 300 300 299 299 299
329 329 328 326 329 331 330 330 329 328 328 324 321 320 319 316 314 313 312 312 311 310 309 308 308 307 307 306 305 304 303 303 304 302 300 300 300 300 299 298 297 297 297
330 330 328 329 330 332 331 330 329 328 323 321 320 320 317 314 314 313 312 311 310 309 307 306 304 304 302 304 304 303 303 304 303 301 300 299 299 298 297 296 296 295 295
329 330 331 331 331 331 331 329 328 324 321 318 316 316 316 315 314 312 311 308 306 304 302 299 298 298 299 301 302 303 303 303 302 300 299 299 297 296 295 295 294 294 293
329 331 332 331 331 330 329 327 324 321 318 316 316 315 314 312 310 308 305 301 300 298 298 298 297 295 295 296 300 302 303 302 300 300 298 296 295 294 293 293 293 292 292
330 331 332 330 329 330 327 324 320 316 315 315 315 314 313 310 306 304 301 299 298 298 297 297 295 296 298 300 301 302 302 301 299 299 297 295 294 293 293 293 293 292 292
330 331 331 330 329 327 324 321 316 315 314 313 313 312 309 308 308 304 299 297 297 297 297 295 295 295 300 301 301 301 299 297 297 297 295 294 293 293 293 292 292 292 291
330 330 329 328 326 323 320 317 315 314 313 311 310 308 310 311 305 301 299 295 296 295 295 295 294 298 300 300 297 297 297 296 296 295 294 294 293 292 292 291 291 290 290
327 326 325 322 320 319 317 315 314 314 311 308 307 308 310 306 301 298 297 295 294 295 295 294 295 298 299 297 297 296 297 296 296 295 294 292 292 292 292 291 290 290 290
324 322 321 319 318 318 317 315 314 313 308 306 308 309 307 303 299 298 297 295 295 294 294 295 295 296 297 298 297 296 296 295 295 294 293 292 292 292 291 290 290 289 289
323 320 319 318 318 318 317 315 314 311 306 306 308 305 304 300 299 298 297 296 295 294 295 295 295 295 296 295 295 295 294 294 294 293 293 292 291 290 290 289 289 288 288
322 320 319 318 319 318 316 315 314 309 306 306 304 304 301 300 300 299 298 297 295 295 295 295 295 295 295 295 294 294 294 293 293 293 292 291 291 290 289 288 287 288 287
323 321 320 320 319 318 316 315 312 308 306 305 303 302 301 301 300 299 298 297 296 295 295 295 295 295 295 294 294 293 292 292 292 292 291 290 289 288 287 287 286 286 284
323 322 321 320 319 317 315 314 311 308 306 304 302 301 301 300 300 299 298 297 296 295 294 295 295 295 294 293 292 292 292 292 292 291 290 289 287 287 286 285 284 283 282
322 322 322 321 319 317 315 313 310 307 306 303 301 301 300 300 300 298 297 297 296 295 294 294 294 295 294 294 293 292 290 289 289 288 288 288 287 286 285 284 283 283 282
317 321 321 321 319 317 316 312 309 307 305 302 300 300 300 299 298 297 296 296 296 295 295 294 294 294 294 294 293 292 289 287 288 288 287 287 285 285 284 283 283 282 281
317 318 319 320 319 317 315 312 309 307 304 301 300 300 299 298 299 296 296 296 295 295 295 294 294 293 293 293 293 291 288 288 288 287 286 285 285 284 284 283 282 280 281
317 317 317 317 317 315 313 311 308 306 303 301 300 299 298 298 296 295 295 295 294 294 295 294 294 293 293 292 292 291 289 288 287 286 285 285 284 284 282 281 279 279 280
315 315 315 316 315 314 312 310 307 305 302 300 298 299 298 296 295 294 294 294 294 294 294 294 294 293 292 291 291 290 288 287 286 285 284 284 284 282 282 280 279 279 279
314 314 315 315 314 313 312 308 305 303 301 299 298 296 297 295 294 294 293 293 293 293 294 294 293 292 291 290 289 289 287 287 286 284 283 283 283 283 282 280 279 279 279
314 315 315 314 314 313 310 305 303 301 300 297 296 297 294 294 293 293 293 293 293 293 293 293 293 293 291 289 288 287 287 285 285 283 282 283 283 283 280 280 280 280 279
313 314 313 311 308 307 306 302 300 299 297 296 296 294 293 293 293 292 291 292 292 293 293 293 293 292 290 289 288 288 287 285 284 283 282 282 282 281 281 281 281 280 280
310 307 306 303 301 300 300 299 297 295 296 294 294 292 291 291 291 290 290 290 292 293 293 292 292 291 290 289 289 288 287 286 284 283 282 282 281 282 281 281 282 281 280
302 300 299 299 298 297 297 298 296 295 294 294 291 290 290 290 290 291 291 290 292 293 292 292 291 291 289 289 288 287 287 286 285 283 283 282 281 282 282 282 281 281 281
298 298 298 298 298 298 299 298 295 294 293 290 290 290 290 290 291 291 292 291 290 292 292 291 291 291 290 289 288 287 285 286 285 284 283 282 282 282 282 281 281 281 281
299 299 299 299 299 299 297 294 293 291 290 290 290 290 290 290 290 291 292 291 290 290 290 290 290 290 290 290 288 287 286 284 284 283 283 282 282 282 282 282 281 282 281
Wind_Speed
16 18 19 20 21 20 20 17 17 15 12 8 9 11 11 8 5 3 3 2 4 7 11 5 9 10 12 15 19 19 18 18 22 21 18 19 21 15 18 17 17 18 17
22 19 19 22 22 22 20 18 16 10 10 12 15 14 12 12 4 6 7 7 9 8 6 12 14 14 17 17 16 19 22 20 16 17 20 21 22 15 19 21 24 24 22
23 19 20 20 21 24 23 18 17 13 15 17 15 15 9 3 9 8 2 3 9 9 8 10 13 16 17 17 19 20 18 16 14 14 16 22 16 24 19 20 20 21 20
22 21 20 21 23 22 20 19 18 21 19 12 14 13 12 16 11 6 6 7 7 11 13 14 16 18 18 19 17 15 19 20 14 14 14 18 20 24 27 15 19 21 20
22 24 23 24 24 22 22 21 23 18 16 17 17 16 11 9 6 7 7 7 11 11 12 13 17 18 17 15 16 15 17 17 16 14 16 16 16 17 21 26 21 23 22
22 22 25 22 24 24 23 25 21 17 17 20 20 19 16 12 8 6 7 11 9 12 12 16 17 16 13 12 13 17 16 16 19 22 20 14 16 17 19 22 25 25 24
22 25 27 28 29 27 27 25 20 20 19 20 19 17 11 4 5 6 10 11 10 11 13 17 15 14 9 14 16 18 20 22 20 16 12 12 16 16 18 21 27 25 28
21 22 25 25 24 25 24 22 23 20 19 19 17 11 6 6 8 10 11 9 10 11 14 14 13 10 13 15 18 15 14 14 15 16 9 15 14 15 17 20 22 29 30
21 24 26 25 26 24 24 25 24 22 21 19 16 10 6 7 9 8 8 8 11 11 11 14 10 9 16 16 17 17 15 19 17 16 15 14 12 16 16 18 20 23 30
22 23 25 25 25 24 24 25 24 25 22 21 15 11 8 7 7 7 8 10 11 12 11 12 12 12 11 13 15 17 17 18 18 14 13 13 13 17 16 19 23 25 29
23 25 26 26 24 25 25 27 26 26 25 24 15 11 8 10 8 7 9 10 12 11 12 12 13 13 12 14 17 18 19 18 17 12 16 19 15 17 20 23 23 25 26
26 27 27 26 27 25 26 26 27 26 26 20 16 14 14 10 9 8 9 11 13 11 13 14 13 12 14 16 17 15 15 16 15 20 14 14 16 19 21 21 23 23 26
25 27 28 29 26 25 26 27 28 27 23 17 20 16 15 12 10 11 11 12 11 14 13 13 12 13 14 18 12 12 13 15 13 13 18 22 20 23 24 27 28 31 31
21 25 27 29 27 25 27 27 26 26 20 22 18 16 15 12 10 12 14 13 13 14 13 13 13 15 15 13 12 12 12 14 14 17 15 18 19 22 25 29 30 25 23
22 24 25 25 26 26 26 27 27 26 24 21 17 15 15 14 14 12 15 15 15 17 13 14 15 17 19 14 15 15 17 18 15 14 16 18 21 25 25 24 24 24 24
16 15 17 18 22 23 27 27 27 25 25 21 19 15 12 11 10 15 20 17 16 14 15 15 16 17 15 17 20 17 17 15 15 15 19 21 17 18 19 19 19 23 25
14 14 14 18 20 23 26 28 28 25 23 21 18 14 12 10 19 15 15 15 17 18 18 17 16 18 18 21 20 16 16 18 14 17 18 19 12 18 21 22 23 23 18
8 10 13 17 21 22 23 26 24 24 20 18 15 14 11 12 11 15 16 17 18 18 19 19 18 17 19 18 19 18 21 19 15 19 19 15 14 20 21 22 24 23 19
7 10 12 16 18 20 22 24 24 20 17 16 13 11 9 10 18 16 15 17 20 20 20 19 19 17 16 16 20 21 21 18 18 18 15 13 18 20 20 23 23 23 21
15 15 14 14 17 17 19 20 19 13 15 10 9 6 13 15 16 18 18 18 19 19 19 19 19 17 17 19 23 23 20 20 18 15 13 13 17 20 22 22 22 23 22
15 15 10 8 10 12 15 12 13 14 12 9 9 10 10 18 16 19 19 20 20 18 18 23 21 21 22 22 21 18 17 20 17 15 13 10 18 21 21 20 19 19 22
14 6 4 4 6 10 13 17 13 10 10 8 6 8 16 15 16 20 21 17 17 14 17 18 21 19 21 20 18 18 17 17 17 16 14 14 16 17 16 15 15 17 19
4 2 5 8 11 12 11 14 12 7 3 5 9 17 19 20 18 19 20 13 11 12 14 17 20 19 15 18 20 17 18 17 17 14 13 12 17 13 13 14 17 17 20
9 9 7 6 7 7 7 5 5 2 4 12 17 18 19 16 17 16 18 13 12 12 17 19 19 19 16 15 13 17 19 18 18 15 14 18 17 10 13 14 14 17 19
11 10 7 4 4 2 3 1 1 6 14 16 17 16 15 15 15 14 17 23 17 18 15 16 18 20 20 20 19 20 21 20 19 20 20 20 11 12 14 14 12 16 17
1 2 0 3 3 2 3 4 10 13 15 15 15 15 15 17 17 16 15 19 25 21 18 21 26 27 25 24 24 22 18 20 24 24 22 19 11 12 15 14 12 15 16
Wind_Direction
162 167 175 171 169 171 170 174 184 176 161 177 139 141 129 141 162 130 70 356 48 3 2 320 300 297 289 292 301 310 305 296 305 311 305 308 305 295 302 303 302 309 317
177 178 182 179 181 177 178 175 186 174 161 161 159 149 152 155 179 20 18 338 330 320 308 309 312 302 297 302 308 299 302 305 293 312 310 319 313 309 299 303 314 315 303
169 182 186 185 185 178 180 177 181 168 176 181 188 181 179 123 107 91 124 335 329 330 326 310 305 301 314 302 298 305 310 293 284 310 311 321 321 320 318 308 308 311 313
172 183 190 189 190 183 184 184 174 181 182 154 165 153 143 161 180 170 241 284 276 283 289 294 290 289 289 291 300 297 293 296 300 292 291 289 309 325 321 319 312 308 312
180 182 188 194 192 187 180 178 175 184 172 179 185 178 176 138 188 234 283 295 300 306 306 299 301 310 309 307 302 302 280 276 276 282 299 314 313 308 316 320 321 311 304
177 183 187 193 186 176 175 178 173 167 168 176 180 190 191 191 215 284 309 306 314 306 304 303 315 318 321 315 291 273 273 277 290 288 296 303 312 317 319 316 314 312 311
179 181 177 174 169 170 178 179 169 170 183 194 196 199 199 223 276 303 305 317 299 302 296 309 317 321 319 281 273 276 289 293 296 289 273 288 284 307 306 313 311 308 307
177 176 173 172 173 180 185 175 180 177 182 194 193 185 214 271 274 291 293 299 296 293 300 306 313 321 280 283 289 286 307 308 304 299 294 281 291 302 306 306 308 308 304
184 185 181 182 183 187 186 183 183 183 190 196 192 210 237 271 258 264 291 300 295 290 291 302 308 297 286 298 289 304 304 300 299 266 277 285 295 300 302 303 305 308 310
190 192 187 188 190 194 196 192 190 194 192 200 205 227 249 256 242 277 293 300 290 300 306 305 298 282 289 299 302 299 295 294 295 289 285 276 275 291 312 302 297 305 301
198 197 198 197 198 199 201 198 196 200 195 205 210 213 252 226 242 270 282 293 292 309 300 294 290 295 294 291 293 295 303 299 298 295 273 298 314 301 305 313 305 301 301
199 202 205 207 198 204 203 205 202 204 207 210 212 217 211 216 229 236 267 270 298 299 297 296 297 301 299 291 286 291 293 292 286 283 299 288 296 306 310 305 299 294 288
202 207 205 205 207 210 209 208 208 209 209 209 212 217 208 217 223 254 267 275 291 292 299 293 291 292 290 298 302 299 288 289 308 308 294 304 309 304 298 290 289 293 295
217 215 210 205 207 211 210 214 213 212 218 212 219 211 216 221 240 256 268 274 285 288 301 293 292 283 293 281 275 276 277 290 297 301 306 304 301 297 296 297 305 308 306
219 222 218 208 203 208 215 216 216 219 218 219 218 223 234 233 254 274 269 283 279 297 301 299 295 286 290 280 270 264 289 291 284 295 297 295 294 295 301 308 313 309 315
288 244 230 223 212 213 216 215 218 219 220 219 221 224 224 243 245 285 270 278 288 293 287 290 289 290 285 277 285 275 296 299 297 292 291 292 299 298 304 304 300 310 308
282 277 250 237 232 226 222 217 216 221 219 216 223 233 235 231 303 295 281 279 280 280 283 288 284 285 276 280 281 277 299 288 296 296 291 291 291 283 286 289 301 309 306
286 277 258 244 239 232 227 217 216 219 214 217 222 228 247 307 294 278 282 285 285 284 283 284 286 278 277 279 282 287 291 288 296 293 297 290 287 282 298 307 311 317 316
313 289 277 254 241 232 226 219 209 212 214 214 227 269 309 277 283 284 283 284 285 284 280 280 282 266 270 283 281 288 285 291 301 301 295 289 288 297 305 313 318 320 323
308 302 288 267 247 234 219 207 198 196 204 231 296 240 279 304 286 279 286 282 280 281 284 284 270 266 264 273 278 279 284 293 300 295 292 284 290 295 307 314 318 321 327
320 305 297 274 239 219 212 201 191 192 213 220 229 259 311 275 285 284 281 279 282 284 279 280 274 270 277 278 278 286 292 301 293 296 293 279 285 296 306 313 319 333 335
331 351 213 195 164 178 189 181 187 199 195 200 274 301 273 276 282 282 296 298 291 287 281 268 275 278 294 280 284 290 289 307 299 296 295 282 294 310 313 319 336 336 338
2 123 154 153 148 156 165 166 163 141 22 2 280 270 274 281 289 297 307 300 309 288 272 270 278 280 277 277 281 290 284 295 302 299 303 306 319 326 333 340 329 323 334
101 101 126 136 122 135 138 102 78 38 298 277 280 282 288 296 304 309 314 306 274 278 277 269 267 271 269 261 270 294 292 286 292 299 301 313 316 319 323 320 322 318 320
120 131 128 131 123 73 293 215 337 272 268 280 291 295 301 304 302 298 287 296 291 266 266 264 268 265 253 247 273 293 288 284 283 288 290 297 303 298 304 310 310 314 318
26 295 168 164 196 290 11 273 270 294 299 298 299 300 305 306 308 308 301 289 305 305 272 268 267 264 261 258 278 285 285 266 264 270 277 286 282 289 299 304 309 310 311